| time (UTC) | temp F | wind direction | speed knots | gust knots | rain 1hr in | rain 24hr in | rain mn in | humidity % | barometer mb |
| 20260905140457 | 80 | 98 | 0.0 | 4.3 | 0.00 | 0.00 | 0.00 | 73 | 1011.6 |
| 20260905134324 | 79 | 115 | 0.0 | 0.9 | 0.00 | 0.00 | 0.00 | 79 | 1011.4 |
| 20260905132143 | 78 | 333 | 0.0 | 0.9 | 0.00 | 0.00 | 0.00 | 82 | 1011.6 |
| 20260905131141 | 77 | 331 | 0.0 | 0.0 | 0.00 | 0.00 | 0.00 | 84 | 1011.6 |
| 20260905130126 | 77 | 331 | 0.0 | 0.0 | 0.00 | 0.00 | 0.00 | 84 | 1011.6 |
| 20260905125117 | 77 | 331 | 0.0 | 0.0 | 0.00 | 0.00 | 0.00 | 84 | 1011.6 |
| 20260905124100 | 77 | 331 | 0.0 | 0.0 | 0.00 | 0.00 | 0.00 | 84 | 1011.5 |
| 20260905123058 | 77 | 331 | 0.0 | 0.0 | 0.00 | 0.00 | 0.00 | 84 | 1011.2 |
| 20260905122047 | 77 | 199 | 0.0 | 0.0 | 0.00 | 0.00 | 0.00 | 85 | 1011.3 |
| 20260905121047 | 76 | 198 | 0.0 | 0.0 | 0.00 | 0.00 | 0.00 | 87 | 1011.3 |
| 20260905120107 | 75 | 198 | 0.0 | 0.0 | 0.00 | 0.00 | 0.00 | 89 | 1011.4 |
| 20260905115047 | 73 | 198 | 0.0 | 0.0 | 0.00 | 0.00 | 0.00 | 92 | 1011.1 |
| 20260905114049 | 72 | 198 | 0.0 | 0.0 | 0.00 | 0.00 | 0.00 | 94 | 1011.1 |
| 20260905111912 | 71 | 198 | 0.0 | 0.0 | 0.00 | 0.00 | 0.00 | 95 | 1011.1 |
| 20260905105752 | 70 | 269 | 0.0 | 0.0 | 0.00 | 0.00 | 0.00 | 94 | 1010.6 |
| 20260905104717 | 70 | 269 | 0.0 | 0.0 | 0.00 | 0.00 | 0.00 | 93 | 1010.5 |
| 20260905103708 | 70 | 269 | 0.0 | 0.0 | 0.00 | 0.00 | 0.00 | 93 | 1010.5 |
| 20260905102642 | 71 | 269 | 0.0 | 0.0 | 0.00 | 0.00 | 0.00 | 93 | 1010.2 |
| 20260905101613 | 71 | 269 | 0.0 | 0.0 | 0.00 | 0.00 | 0.00 | 93 | 1010.2 |
| 20260905100611 | 71 | 269 | 0.0 | 0.0 | 0.00 | 0.00 | 0.00 | 93 | 1010.3 |
| 20260905095555 | 71 | 269 | 0.0 | 0.0 | 0.00 | 0.00 | 0.00 | 93 | 1010.2 |
| 20260905093355 | 71 | 269 | 0.0 | 0.0 | 0.00 | 0.00 | 0.00 | 93 | 1010.1 |
| 20260905091306 | 71 | 269 | 0.0 | 0.0 | 0.00 | 0.00 | 0.00 | 92 | 1010.2 |
| 20260905090307 | 71 | 269 | 0.0 | 0.0 | 0.00 | 0.00 | 0.00 | 92 | 1010.2 |
| 20260905084228 | 71 | 269 | 0.0 | 0.0 | 0.00 | 0.00 | 0.00 | 92 | 1010.1 |
| 20260905083232 | 72 | 269 | 0.0 | 0.0 | 0.00 | 0.00 | 0.00 | 92 | 1010.2 |
| 20260905082223 | 72 | 269 | 0.0 | 0.0 | 0.00 | 0.00 | 0.00 | 92 | 1010.1 |
| 20260905081205 | 72 | 269 | 0.0 | 0.0 | 0.00 | 0.00 | 0.00 | 92 | 1010.2 |
| 20260905080155 | 72 | 269 | 0.0 | 0.0 | 0.00 | 0.00 | 0.00 | 92 | 1010.4 |
| 20260905075147 | 72 | 269 | 0.0 | 0.0 | 0.00 | 0.00 | 0.00 | 92 | 1010.4 |
| 20260905074115 | 72 | 269 | 0.0 | 0.0 | 0.00 | 0.00 | 0.00 | 91 | 1010.6 |
| 20260905073129 | 72 | 269 | 0.0 | 0.0 | 0.00 | 0.00 | 0.00 | 91 | 1010.5 |
| 20260905072129 | 73 | 269 | 0.0 | 0.0 | 0.00 | 0.00 | 0.00 | 91 | 1010.5 |
| 20260905070037 | 73 | 269 | 0.0 | 0.0 | 0.00 | 0.00 | 0.00 | 90 | 1010.6 |
| 20260905065038 | 73 | 269 | 0.0 | 0.0 | 0.00 | 0.00 | 0.00 | 90 | 1010.7 |
| 20260905064052 | 74 | 269 | 0.0 | 0.0 | 0.00 | 0.00 | 0.00 | 89 | 1010.9 |
| 20260905061909 | 74 | 269 | 0.0 | 0.0 | 0.00 | 0.00 | 0.00 | 88 | 1011.3 |
| 20260905060922 | 74 | 269 | 0.0 | 0.0 | 0.00 | 0.00 | 0.00 | 89 | 1011.3 |
| 20260905055946 | 74 | 269 | 0.0 | 0.0 | 0.00 | 0.00 | 0.00 | 88 | 1011.4 |
| 20260905054914 | 75 | 269 | 0.0 | 0.0 | 0.00 | 0.00 | 0.00 | 88 | 1011.4 |
| 20260905052723 | 75 | 269 | 0.0 | 0.0 | 0.00 | 0.01 | 0.00 | 86 | 1011.6 |
| 20260905051720 | 76 | 269 | 0.0 | 0.0 | 0.00 | 0.01 | 0.00 | 86 | 1011.7 |
| 20260905050648 | 76 | 269 | 0.0 | 0.0 | 0.00 | 0.02 | 0.00 | 85 | 1011.8 |
| 20260905045617 | 76 | 269 | 0.0 | 0.0 | 0.00 | 0.02 | 0.00 | 85 | 1011.9 |
| 20260905043417 | 76 | 267 | 0.0 | 3.5 | 0.00 | 0.02 | 0.00 | 85 | 1011.9 |
| 20260905042407 | 76 | 273 | 0.0 | 4.3 | 0.00 | 0.02 | 0.00 | 85 | 1012.0 |
| 20260905040239 | 76 | 256 | 0.0 | 0.9 | 0.00 | 0.09 | 0.00 | 86 | 1012.1 |
| 20260905034157 | 76 | 256 | 0.0 | 0.0 | 0.00 | 0.85 | 0.09 | 87 | 1012.3 |
| 20260905033202 | 76 | 257 | 0.0 | 0.0 | 0.00 | 0.93 | 0.09 | 86 | 1012.3 |
| 20260905032136 | 76 | 257 | 0.0 | 0.9 | 0.00 | 0.93 | 0.09 | 86 | 1012.2 |
| 20260905031104 | 76 | 257 | 0.0 | 2.6 | 0.00 | 0.93 | 0.09 | 86 | 1012.3 |
| 20260905030104 | 76 | 256 | 0.0 | 0.0 | 0.00 | 0.93 | 0.09 | 86 | 1012.2 |
| 20260905025116 | 76 | 256 | 0.0 | 0.0 | 0.00 | 0.93 | 0.09 | 87 | 1012.2 |
| 20260905024129 | 76 | 256 | 0.0 | 0.0 | 0.00 | 0.93 | 0.09 | 86 | 1012.3 |
| 20260905023146 | 76 | 256 | 0.0 | 0.0 | 0.00 | 0.93 | 0.09 | 86 | 1012.3 |
| 20260905021017 | 77 | 256 | 0.0 | 0.0 | 0.00 | 0.93 | 0.09 | 86 | 1011.9 |
| 20260905020032 | 77 | 256 | 0.0 | 0.0 | 0.00 | 0.93 | 0.09 | 85 | 1011.9 |
| 20260905015048 | 77 | 256 | 0.0 | 0.0 | 0.00 | 0.93 | 0.09 | 85 | 1012.0 |
| 20260905014025 | 77 | 256 | 0.0 | 0.9 | 0.00 | 0.93 | 0.09 | 84 | 1011.9 |
| 20260905010800 | 78 | 256 | 0.0 | 0.0 | 0.00 | 0.93 | 0.09 | 83 | 1011.4 |
| 20260905005747 | 78 | 256 | 0.0 | 0.0 | 0.00 | 0.93 | 0.09 | 83 | 1011.1 |
| 20260905004746 | 79 | 256 | 0.0 | 0.0 | 0.00 | 0.93 | 0.09 | 82 | 1011.2 |
| 20260905001456 | 79 | 255 | 0.0 | 0.0 | 0.00 | 0.93 | 0.09 | 81 | 1011.2 |
| 20260904235300 | 80 | 255 | 0.0 | 3.5 | 0.00 | 0.93 | 0.09 | 80 | 1011.1 |
| 20260904233121 | 80 | 263 | 0.0 | 0.0 | 0.00 | 0.93 | 0.09 | 83 | 1011.4 |
| 20260904232136 | 80 | 263 | 0.0 | 0.0 | 0.00 | 0.93 | 0.09 | 83 | 1011.4 |
| 20260904231108 | 81 | 263 | 0.0 | 0.0 | 0.00 | 0.93 | 0.09 | 81 | 1011.4 |
| 20260904224939 | 81 | 263 | 0.0 | 0.0 | 0.00 | 0.93 | 0.09 | 80 | 1011.2 |
| 20260904222845 | 82 | 263 | 0.0 | 0.9 | 0.00 | 0.93 | 0.09 | 80 | 1011.4 |
| 20260904221854 | 82 | 263 | 0.0 | 0.0 | 0.00 | 0.93 | 0.09 | 80 | 1011.3 |
| 20260904220831 | 82 | 263 | 0.0 | 0.9 | 0.00 | 0.93 | 0.09 | 80 | 1011.6 |
| 20260904215818 | 82 | 263 | 0.0 | 0.0 | 0.00 | 0.93 | 0.09 | 81 | 1011.6 |
| 20260904214808 | 82 | 263 | 0.0 | 0.0 | 0.00 | 0.93 | 0.09 | 80 | 1011.7 |
| 20260904213821 | 82 | 263 | 0.0 | 0.0 | 0.00 | 0.93 | 0.09 | 79 | 1011.8 |
| 20260904212800 | 82 | 263 | 0.0 | 0.0 | 0.00 | 0.93 | 0.09 | 78 | 1011.8 |
| 20260904211821 | 83 | 277 | 0.9 | 6.1 | 0.00 | 0.93 | 0.09 | 79 | 1012.1 |
| 20260904210750 | 84 | 291 | 0.0 | 2.6 | 0.00 | 0.93 | 0.09 | 80 | 1012.2 |
| 20260904205748 | 85 | 5 | 0.0 | 0.0 | 0.00 | 0.93 | 0.09 | 78 | 1012.3 |
| 20260904204742 | 86 | 5 | 0.0 | 0.0 | 0.00 | 0.93 | 0.09 | 75 | 1012.1 |
| 20260904203727 | 87 | 5 | 0.0 | 0.0 | 0.00 | 0.93 | 0.09 | 69 | 1012.2 |
| 20260904202713 | 87 | 5 | 0.0 | 0.0 | 0.00 | 0.93 | 0.09 | 67 | 1012.4 |
| 20260904201710 | 88 | 5 | 0.0 | 0.0 | 0.00 | 0.93 | 0.09 | 66 | 1012.3 |
| 20260904200709 | 88 | 5 | 0.0 | 0.9 | 0.00 | 0.93 | 0.09 | 64 | 1012.3 |
| 20260904195710 | 88 | 5 | 0.0 | 0.9 | 0.00 | 0.93 | 0.09 | 64 | 1011.9 |
| 20260904193617 | 89 | 5 | 0.0 | 0.0 | 0.00 | 0.93 | 0.09 | 62 | 1011.9 |
| 20260904192613 | 89 | 5 | 0.0 | 3.5 | 0.00 | 0.93 | 0.09 | 61 | 1012.0 |
| 20260904191550 | 91 | 19 | 0.0 | 2.6 | 0.00 | 0.93 | 0.09 | 58 | 1011.9 |
| 20260904190533 | 92 | 146 | 0.0 | 1.7 | 0.00 | 0.93 | 0.09 | 58 | 1012.0 |
| 20260904185515 | 91 | 143 | 0.0 | 0.9 | 0.00 | 0.93 | 0.09 | 59 | 1012.2 |
| 20260904184513 | 90 | 350 | 0.0 | 2.6 | 0.00 | 0.93 | 0.09 | 57 | 1012.6 |
| 20260904183513 | 92 | 167 | 0.0 | 3.5 | 0.00 | 0.93 | 0.09 | 57 | 1012.8 |
| 20260904182515 | 92 | 349 | 0.0 | 4.3 | 0.00 | 0.93 | 0.09 | 55 | 1012.9 |
| 20260904181534 | 93 | 311 | 0.0 | 4.3 | 0.00 | 0.93 | 0.09 | 52 | 1012.9 |
| 20260904180512 | 93 | 243 | 0.0 | 0.9 | 0.00 | 0.93 | 0.09 | 53 | 1013.0 |
| 20260904175500 | 92 | 245 | 0.9 | 3.5 | 0.00 | 0.93 | 0.09 | 53 | 1013.0 |
| 20260904174444 | 91 | 320 | 0.0 | 3.5 | 0.00 | 0.93 | 0.09 | 55 | 1013.1 |
| 20260904172402 | 92 | 258 | 0.9 | 4.3 | 0.00 | 0.93 | 0.09 | 54 | 1013.3 |
| 20260904171330 | 91 | 346 | 0.0 | 4.3 | 0.00 | 0.93 | 0.09 | 57 | 1013.4 |
| 20260904170256 | 90 | 349 | 0.9 | 4.3 | 0.00 | 0.93 | 0.09 | 57 | 1013.3 |
| 20260904164130 | 90 | 337 | 0.0 | 2.6 | 0.00 | 0.93 | 0.09 | 59 | 1013.6 |
| 20260904163118 | 91 | 28 | 0.9 | 5.2 | 0.00 | 0.93 | 0.09 | 58 | 1013.7 |
| 20260904162134 | 91 | 302 | 0.9 | 5.2 | 0.00 | 0.93 | 0.09 | 58 | 1013.9 |
| 20260904161102 | 89 | 339 | 0.0 | 3.5 | 0.00 | 0.93 | 0.09 | 62 | 1014.0 |
| 20260904160108 | 89 | 313 | 0.0 | 5.2 | 0.00 | 0.93 | 0.09 | 63 | 1013.9 |
| 20260904155108 | 90 | 307 | 1.7 | 5.2 | 0.00 | 0.93 | 0.09 | 59 | 1014.0 |
| 20260904154041 | 88 | 338 | 0.0 | 5.2 | 0.00 | 0.93 | 0.09 | 64 | 1013.9 |
| 20260904153032 | 85 | 355 | 0.9 | 4.3 | 0.00 | 0.93 | 0.09 | 69 | 1013.9 |
| 20260904150841 | 86 | 314 | 0.9 | 3.5 | 0.00 | 0.93 | 0.09 | 65 | 1014.1 |
| 20260904145829 | 87 | 314 | 0.9 | 4.3 | 0.00 | 0.93 | 0.09 | 65 | 1014.2 |
| 20260904144756 | 84 | 335 | 0.9 | 4.3 | 0.00 | 0.93 | 0.09 | 70 | 1014.4 |
| 20260904142608 | 85 | 306 | 0.0 | 2.6 | 0.00 | 0.93 | 0.09 | 70 | 1014.3 |